Greenville Downtown, SC

4:36 PM EDT on May 28, 2017 (GMT -0400)
Greenville Downtown

Weather History for KGMU - May, 2013

Change the Weather History Date:

Wednesday, May 29, 2013

  Actual Average Record
Temperature  
Mean Temperature 73 °F -  
Max Temperature 84 °F 80 °F 90 °F (2006)
Min Temperature 64 °F 60 °F 55 °F (1997)
Cooling Degree Days 8    
Growing Degree Days 23 (Base 50)    
Moisture  
Dew Point 59 °F    
Average Humidity 61    
Maximum Humidity 81    
Minimum Humidity 42    
Precipitation  
Precipitation 0.00 in - - ()
Sea Level Pressure  
Sea Level Pressure 30.20 in    
Wind  
Wind Speed 5 mph (SSW)    
Max Wind Speed 10 mph    
Max Gust Speed -    
Visibility 10 miles    
Events      
Averages and records for this station are not official NWS values.
T = Trace of Precipitation, MM = Missing Value Source: NWS Daily Summary

Daily Weather History Graph

Daily Weather History Graph

Search for Another Location

Airport or City:

Trip Planner

Search our weather history database for the weather conditions in past years. The results will help you decide how hot, cold, wet, or windy it might be!

Date:

Astronomy

May. 29, 2013 Rise Set
Actual Time 6:18 AM EDT 8:36 PM EDT
Civil Twilight 5:49 AM EDT 9:05 PM EDT
Nautical Twilight 5:13 AM EDT 9:40 PM EDT
Astronomical Twilight 4:34 AM EDT 10:19 PM EDT
Moon 12:03 AM EDT (5/29) 11:09 AM EDT (5/29)
Length of Visible Light 15h 15m
Length of Day
14h 18m
Waning Gibbous, 73% of the Moon is Illuminated
May 29
Waning Gibbous
May 31
Last Quarter
Jun 8
New
Jun 16
First Quarter
Jun 23
Full

Hourly Weather History & Observations

Time (EDT) Temp. Heat Index Dew Point Humidity Pressure Visibility Wind Dir Wind Speed Gust Speed Precip Events Conditions
12:53 AM 71.1 °F - 60.1 °F 68% 30.18 in 10.0 mi South 10.4 mph - N/A   Clear
1:53 AM 69.1 °F - 59.0 °F 70% 30.17 in 10.0 mi South 10.4 mph - N/A   Clear
2:53 AM 66.9 °F - 59.0 °F 76% 30.18 in 10.0 mi Calm Calm - N/A   Clear
3:53 AM 66.9 °F - 59.0 °F 76% 30.19 in 10.0 mi Calm Calm - N/A   Clear
4:53 AM 64.9 °F - 59.0 °F 81% 30.20 in 10.0 mi WNW 3.5 mph - N/A   Clear
5:53 AM 64.9 °F - 59.0 °F 81% 30.21 in 10.0 mi Calm Calm - N/A   Clear
6:53 AM 64.9 °F - 59.0 °F 81% 30.22 in 10.0 mi Calm Calm - N/A   Clear
7:53 AM 68.0 °F - 61.0 °F 78% 30.23 in 10.0 mi SW 4.6 mph - N/A   Partly Cloudy
8:53 AM 71.1 °F - 61.0 °F 70% 30.24 in 10.0 mi SW 5.8 mph - N/A   Clear
9:53 AM 72.0 °F - 61.0 °F 68% 30.25 in 10.0 mi WSW 5.8 mph - N/A   Scattered Clouds
10:53 AM 75.0 °F - 61.0 °F 62% 30.24 in 10.0 mi Variable 3.5 mph - N/A   Scattered Clouds
11:53 AM 78.1 °F - 59.0 °F 52% 30.25 in 10.0 mi SW 6.9 mph - N/A   Clear
12:53 PM 79.0 °F - 60.1 °F 52% 30.24 in 10.0 mi Variable 5.8 mph - N/A   Clear
1:53 PM 82.0 °F 82.4 °F 60.1 °F 47% 30.23 in 10.0 mi SSW 8.1 mph - N/A   Clear
2:53 PM 81.0 °F 81.1 °F 57.9 °F 45% 30.22 in 10.0 mi Variable 4.6 mph - N/A   Clear
3:53 PM 82.0 °F 82.1 °F 59.0 °F 45% 30.19 in 10.0 mi SE 5.8 mph - N/A   Clear
4:53 PM 82.9 °F 82.8 °F 59.0 °F 44% 30.18 in 10.0 mi SE 8.1 mph - N/A   Clear
5:53 PM 82.9 °F 82.6 °F 57.9 °F 42% 30.17 in 10.0 mi South 9.2 mph - N/A   Clear
6:53 PM 82.0 °F 82.0 °F 57.9 °F 44% 30.17 in 10.0 mi SSE 5.8 mph - N/A   Clear
7:53 PM 80.1 °F 80.6 °F 57.9 °F 47% 30.17 in 10.0 mi South 4.6 mph - N/A   Clear
8:53 PM 79.0 °F - 59.0 °F 50% 30.17 in 10.0 mi Calm Calm - N/A   Clear
9:53 PM 75.9 °F - 60.1 °F 58% 30.18 in 10.0 mi Calm Calm - N/A   Clear
10:53 PM 75.9 °F - 60.1 °F 58% 30.20 in 10.0 mi Calm Calm - N/A   Mostly Cloudy
11:53 PM 73.0 °F - 61.0 °F 66% 30.20 in 10.0 mi Calm Calm - N/A   Mostly Cloudy